Regional Weather Roundup
Issued by NWS

Home | Current Version | Previous Version | Text Only | Print | Product List | Glossary Off
Versions: 1 2 3 4 5 6 7 8 9 10 11 12 13 14 15 16 17 18 19 20 21 22 23 24 25 26 27 28 29 30 31 32 33 34 35 36 37 38 39 40 41 42 43 44 45 46 47 48 49 50

000
ASUS43 KFSD 011302
RWRSD

WEATHER ROUNDUP FOR SOUTH DAKOTA
NATIONAL WEATHER SERVICE SIOUX FALLS SD
800 AM CDT SUN MAY 01 2016

NOTE: "FAIR" INDICATES FEW OR NO CLOUDS BELOW 12,000 FEET WITH NO
SIGNIFICANT WEATHER AND/OR OBSTRUCTIONS TO VISIBILITY.


SDZ001>005-009-010-012>017-011400-
NORTHWEST AND NORTH CENTRAL SOUTH DAKOTA

CITY           SKY/WX    TMP DP  RH WIND       PRES   REMARKS
BUFFALO          N/A     35  28  75 NW6       30.27R
FAITH            N/A     35  28  75 NW7       30.30R WCI  29
MOBRIDGE       SUNNY     41  34  76 NW6       30.27R
$$

SDZ012>016-024>037-041>051-057-063-072>074-011400-
SOUTHWEST AND SOUTH CENTRAL SOUTH DAKOTA

CITY           SKY/WX    TMP DP  RH WIND       PRES   REMARKS
RAPID CTY ARPT PTSUNNY   38  30  73 NW13      30.30R
PIERRE         SUNNY     38  30  73 N10       30.26R
CUSTER         MOSUNNY   33  22  63 N10       30.26R WCI  25
ELLSWORTH AFB  CLOUDY    40  30  67 N12       30.30R
PHILIP         SUNNY     39  30  70 N14       30.28R
PINE RIDGE     SUNNY     34  30  85 NW5       30.27R WCI  30
WINNER         FAIR      39  34  82 N6        30.22R
$$

SDZ004>011-016>023-039-040-011400-
NORTHEAST SOUTH DAKOTA

CITY           SKY/WX    TMP DP  RH WIND       PRES   REMARKS
ABERDEEN       SUNNY     40  33  76 N9        30.27R
WATERTOWN      SUNNY     40  29  64 NE13      30.20R
BROOKINGS      SUNNY     38  30  73 NE12      30.17R
SISSETON         N/A     42  31  64 NE12      30.26R
$$

SDZ017-020-022-023-036>040-048>070-011400-
SOUTHEAST SOUTH DAKOTA

CITY           SKY/WX    TMP DP  RH WIND       PRES   REMARKS
SIOUX FALLS    LGT RAIN  40  36  86 N10       30.15R
HURON          SUNNY     39  31  72 NE9       30.22R
MITCHELL       CLOUDY    39  34  82 N10       30.20R
YANKTON        CLOUDY    43  37  81 N15       30.13R
$$

ABBREVIATIONS USED IN REMARKS
   TC - TEMPERATURE IN CELSIUS
  WCI - WIND CHILL INDEX
   HX - HEAT INDEX
  VSB - VISIBILITY





USA.gov is the U.S. government's official web portal to all federal, state and local government web resources and services.